Location: Unspecified
(22.6800°N, 112.2000°E)
Time: 10:50:28
(UTC+08:00)

Transit 2A - Pass Details

Date: 09 August 2021
Orbit: 595 x 963 km, 66.7° (Epoch: 16 September)

Event Time Altitude Azimuth Distance (km) Brightness Sun altitude
Rises 15:56:18 0° 307° (NW) 3,497 10.0 42.6°
Reaches altitude 10° 16:00:10 10° 282° (WNW) 2,616 9.9 41.7°
Maximum altitude 16:02:59 13° 255° (WSW) 2,403 9.8 41.0°
Drops below altitude 10° 16:05:51 10° 227° (SW) 2,671 9.5 40.4°
Sets 16:09:55 0° 202° (SSW) 3,632 9.7 39.5°
